Terug naar catalogus

STARLINK-38268

ActiefCommunicatieSSO
NORAD 100321·PAYLOAD·🇺🇸 United States

Gelanceerd Aug 12, 2026 vanaf Vandenberg Space Force Base

Loading…

Volgende Passages (komende 24 uur)

TLE

VersSource: Space-Track

Epoch: Sep 14, 2026, 21:27 UTC

1 A0321U 26184W   26257.89392703  .00015425  00000-0  42816-3 0  9991
2 A0321  97.2836 123.1294 0002091  95.4528 264.6955 15.36989688  6501

Volg STARLINK-38268 in realtime met AllMySat

Download on the App Store